Terug naar catalogus

ARIANE 5 DEB

SYLDA

ActiefHEO
NORAD 39511·DEBRIS·🇫🇷 France

Gelanceerd Feb 6, 2014 vanaf Guiana Space Centre

Loading…

Volgende Passages (komende 24 uur)

TLE

VersSource: Space-Track

Epoch: Sep 14, 2026, 16:47 UTC

1 39511U 14006D   26257.69932015  .00052293  00000-0  43249-2 0  9992
2 39511   5.7757 310.2591 4972563  59.6530 340.2719  5.71613107171283

Volg ARIANE 5 DEB in realtime met AllMySat

Download on the App Store